Regional Weather Roundup
Issued by NWS Austin/San Antonio, TX

Home | Current Version | Previous Version | Text Only | Print | Product List | Glossary On
Versions: 1 2 3 4 5 6 7 8 9 10 11 12 13 14 15 16 17 18 19 20 21 22 23 24 25 26 27 28 29 30 31 32 33 34 35 36 37 38 39 40 41 42 43 44 45 46 47 48 49 50
000
ASUS44 KEWX 192301
RWREWX
SOUTH TEXAS REGIONAL WEATHER ROUNDUP
NATIONAL WEATHER SERVICE AUSTIN/SAN ANTONIO TX
600 PM CDT THU OCT 19 2017

NOTE: "FAIR" INDICATED FEW OR NO CLOUDS BELOW 12,000 FEET WITH NO
SIGNIFICANT WEATHER AND/OR OBSTRUCTIONS TO VISIBILITY.

* - THESE STATIONS ARE NOT NWS OR FAA STATIONS...AND ARE NOT SUBJECT
    TO NWS AND FAA QUALITY CONTROL.

TXZ171-172-183>190-200000-
TEXAS HILL COUNTRY AND EDWARDS PLATEAU

CITY           SKY/WX    TMP DP  RH WIND       PRES   REMARKS
JUNCTION       PTSUNNY   78  57  48 SE17      30.04F
*LLANO         MOSUNNY   81  55  41 SE8G16    30.08S
BURNET         MOSUNNY   78  57  48 SE8       30.09S
*HORSESHOE BAY MOSUNNY   80  56  44 SE7       30.06S
*KERRVILLE     SUNNY     77  61  57 SE10      30.06F
*FREDERICKSBRG MOSUNNY   76  54  46 S7        30.07F
*ROCKSPRINGS   NOT AVBL
*BOERNE STAGE  MOSUNNY   77  59  53 SE6       30.06F
*CASTROVILLE   SUNNY     84  54  36 S10       30.04F
HONDO          SUNNY     83  59  44 SE13      30.02F
*UVALDE        SUNNY     80  60  51 SE12      30.02F
DEL RIO        SUNNY     81  57  43 SE15G21   29.98F
LAUGHLIN AFB   MOSUNNY   80  60  49 SE17      29.99F
CARRIZO SPRGS  MOSUNNY   82  61  47 SE9G17    29.97F
*EAGLE PASS    NOT AVBL
$$

TXZ173-191>194-202-209-217>225-228-200000-
CENTRAL AND SOUTH CENTRAL TEXAS

CITY           SKY/WX    TMP DP  RH WIND       PRES   REMARKS
GEORGETOWN     SUNNY     81  58  45 S10       30.07S
AUSTIN/BERGSTM PTSUNNY   82  58  43 SE10      30.04S
AUSTIN/MABRY   MOSUNNY   81  59  47 SE7       30.06S
*AUSTIN/EXEC   SUNNY     81  57  44 SE8       30.06S
*LAGO VISTA    PTSUNNY   78  58  49 SE6       30.08S
SAN MARCOS     CLOUDY    82  58  43 SE14      30.05S
NEW BRAUNFELS  PTSUNNY   83  57  41 SE13      30.03S
RANDOLPH AFB   PTSUNNY   81  59  47 SE12      30.03F
PT SAN ANTONIO MOSUNNY   82  60  47 SE8       30.02S
SAN ANTONIO    PTSUNNY   82  59  45 SE12      30.04S
STINSON FIELD  MOSUNNY   84  62  47 SE15      30.01S
*LA GRANGE     MOSUNNY   84  62  47 SE8       30.03S
*GIDDINGS      MOSUNNY   82  60  46 SE6       30.05F
*GONZALES      MOSUNNY   82  62  50 SE6       30.03S
$$

TXZ163>164-176>182-195>201-210>213-226-227-235-200000-
SOUTHEAST TEXAS

CITY           SKY/WX    TMP DP  RH WIND       PRES   REMARKS
COLLEGE STN    PTCLDY    82  59  45 SE9       30.05F
*BRYAN         PTCLDY    80  57  45 E8        30.07S
*CALDWELL      PTCLDY    81  60  49 SE8       30.06S
*CROCKETT        N/A     77  57  50 SE6       30.12S
*BRENHAM       MOCLDY    82  62  51 E8        30.06S
HUNTSVILLE     CLOUDY    80  58  46 E6        30.08S
CONROE         CLOUDY    76  65  68 E6        30.08S
HOUSTON BUSH   CLOUDY    79  64  60 SE12      30.08R
HOUSTON HOBBY  CLOUDY    78  61  55 E12       30.07S
*HOUSTON SW AP PTCLDY    76  63  63 E7        30.08S
PEARLAND       PTCLDY    79  59  50 E9        30.09F
HOUSTON HOOKS  PTCLDY    80  60  50 E5        30.07S
ELLINGTON FLD  MOCLDY    77  63  61 E8        30.09F
SUGAR LAND     PTCLDY    79  62  56 E7        30.06S
*HOUSTON EXEC  PTCLDY    79  63  57 SE12      30.08R
*CLEVELAND MUN PTCLDY    74  61  63 CALM      30.10S
*WHARTON       PTCLDY    78  63  59 E8        30.06S
*COLUMBUS      CLOUDY    72  62  72 CALM      30.07S
*EAGLE LAKE    LGT RAIN  74  71  92 SE6       30.05F
$$

TXZ214>216-236>238-200000-
THE UPPER TEXAS COAST

CITY           SKY/WX    TMP DP  RH WIND       PRES   REMARKS
*ORANGE        PTCLDY    77  65  65 SE5       30.11S
PORT ARTHUR    PTCLDY    76  61  59 E8        30.09S
GALVESTON      CLEAR     78  65  63 E15       30.09S
ANGLETON       MOCLDY    77  63  61 E9        30.07S
*BAY CITY      MOCLDY    78  68  70 E15G23    30.06R
PALACIOS       LGT RAIN  76  68  76 E15       30.04S
$$

TXZ229>234-239>247-200000-
TEXAS COASTAL BEND AND RIO GRANDE PLAINS

CITY           SKY/WX    TMP DP  RH WIND       PRES   REMARKS
VICTORIA       CLOUDY    77  62  59 E7        30.04S
*BEEVILLE      CLOUDY    81  60  49 E10       30.03R
ROCKPORT       CLOUDY    76  68  76 E13       30.02S
*PORT ARANSAS  NOT AVBL
*PORT LAVACA   CLOUDY    76  64  66 NE7       30.04F
*INGLESIDE     NOT AVBL
CORPUS CHRISTI CLOUDY    76  66  71 E8        30.02R
CORPUS NAS     CLOUDY    79  71  76 E15       30.01S
*ROBSTOWN      CLOUDY    79  67  66 E18       30.02S
ALICE          CLOUDY    81  66  60 E16       30.00F
KINGSVILLE NAS NOT AVBL
COTULLA        SUNNY     84  62  47 SE15G21   29.99F
*FAITH RANCH   SUNNY     84  61  45 SE9       29.98F
LAREDO         PTSUNNY   87  66  49 E10       29.97F
$$

TXZ248>255-200000-
DEEP SOUTH TEXAS

CITY           SKY/WX    TMP DP  RH WIND       PRES   REMARKS
BROWNSVILLE    SUNNY     84  70  62 E9        29.98S
PORT ISABEL    MOSUNNY   82  71  69 NE10      29.97S
*SOUTH PADRE   NOT AVBL
HARLINGEN      CLOUDY    82  68  62 E12       29.97R
*HEBBRONVILLE  MOSUNNY   81  63  54 E7        30.02S
MCALLEN        SUNNY     86  67  52 NE12      29.97S
*WESLACO       CLOUDY    84  67  56 NE8       29.97S
FALFURRIAS     CLOUDY    78  68  70 E9        30.00S
EDINBURG       CLOUDY    83  65  55 NE6       29.98S
*ZAPATA        PTSUNNY   88  57  34 SE9       29.96S
$$

TXZ213>215-236>238-242>244-246-247-251-254-255-200000-
CMAN STATIONS

STATION/POSITION TIME  TEMP    WIND        PRES    WAVE
                       AIR SEA DIR/SP/G            HT/PER
                 (UTC) (F)     (DEG/KT/KT) (MB)    (FT/S)
SABINE PASS      2230   78 77   80/  8/ 12 1020.4
SEA RIM ST PARK  2200   76     100/  9/ 12 1019.4
NORTH JETTY/GLS  2230      77   80/ 13/ 16 1018.3
EAGLE POINT      2230   76 75  100/ 13/ 15 1018.9
MORGANS POINT    2230   77 77  110/ 10/ 13 1018.7
PORT O`CONNOR    2230   77 77   70/ 12/ 15 1016.6
MALAQUITE BEACH  2230   78 79   50/ 18/ 21 1015.5
BAFFIN BAY       2230   77 77   10/  9/ 12 1015.9
PORT ISABEL      2230   79 78   40/  7/  9 1015.1
$$




USA.gov is the U.S. government's official web portal to all federal, state and local government web resources and services.